Change the Weather History Date:

Wednesday, May 15, 2013

  Actual Average (KFFM) Record (KFFM)
Temperature  
Mean Temperature 63 °F -  
Max Temperature 82 °F 70 °F 93 °F (2001)
Min Temperature 44 °F 44 °F 26 °F (1959)
Degree Days  
Heating Degree Days 2    
Growing Degree Days 13 (Base 50)    
Moisture  
Dew Point 33 °F    
Average Humidity 37    
Maximum Humidity 71    
Minimum Humidity 12    
Precipitation  
Precipitation 0.00 in - - ()
Sea Level Pressure  
Sea Level Pressure 29.83 in    
Wind  
Wind Speed 8 mph (WNW)    
Max Wind Speed 22 mph    
Max Gust Speed 30 mph    
Visibility 10 miles    
Events      
Averages and records for this station are not official NWS values.
T = Trace of Precipitation, MM = Missing Value Source: NWS Daily Summary

Daily Weather History Graph

Daily Weather History Graph

Search for Another Location

Airport or City:

Trip Planner

Search our weather history database for the weather conditions in past years. The results will help you decide how hot, cold, wet, or windy it might be!

Date:

Astronomy

May. 15, 2013 Rise Set
Actual Time 5:53 AM CDT 8:53 PM CDT
Civil Twilight 5:17 AM CDT 9:28 PM CDT
Nautical Twilight 4:32 AM CDT 10:14 PM CDT
Astronomical Twilight 3:38 AM CDT 11:09 PM CDT
Moon 10:33 AM CDT (5/15) 12:37 AM CDT (5/15)
Length of Visible Light 16h 10m
Length of Day
14h 59m
Waxing Crescent, 27% of the Moon is Illuminated
May 15
Waxing Crescent
May 17
First Quarter
May 24
Full
May 31
Last Quarter
Jun 8
New

Hourly Weather History & Observations

Time (CDT) Temp. Windchill Dew Point Humidity Pressure Visibility Wind Dir Wind Speed Gust Speed Precip Events Conditions
12:15 AM 53.6 °F - 37.4 °F 54% 29.81 in 10.0 mi WNW 6.9 mph - N/A   Clear
12:35 AM 51.8 °F - 37.4 °F 58% 29.81 in 10.0 mi WNW 4.6 mph - N/A   Clear
12:55 AM 50.0 °F - 35.6 °F 58% 29.82 in 10.0 mi West 4.6 mph - N/A   Clear
1:15 AM 48.2 °F - 35.6 °F 62% 29.82 in 10.0 mi West 8.1 mph - N/A   Clear
1:35 AM 46.4 °F 45.2 °F 33.8 °F 62% 29.82 in 10.0 mi WNW 3.5 mph - N/A   Clear
1:55 AM 46.4 °F 44.3 °F 35.6 °F 66% 29.82 in 10.0 mi NW 4.6 mph - N/A   Clear
2:15 AM 46.4 °F 42.9 °F 35.6 °F 66% 29.83 in 10.0 mi WNW 6.9 mph - N/A   Clear
2:35 AM 44.6 °F - 33.8 °F 66% 29.83 in 10.0 mi Calm Calm - N/A   Clear
2:55 AM 46.4 °F 44.3 °F 33.8 °F 62% 29.83 in 10.0 mi SW 4.6 mph - N/A   Clear
3:15 AM 44.6 °F - 33.8 °F 66% 29.83 in 10.0 mi Calm Calm - N/A   Clear
3:35 AM 46.4 °F 45.2 °F 35.6 °F 66% 29.83 in 10.0 mi SW 3.5 mph - N/A   Clear
3:55 AM 46.4 °F 45.2 °F 35.6 °F 66% 29.83 in 10.0 mi SW 3.5 mph - N/A   Clear
4:15 AM 44.6 °F - 33.8 °F 66% 29.84 in 10.0 mi Calm Calm - N/A   Clear
4:35 AM 44.6 °F 43.1 °F 35.6 °F 71% 29.85 in 10.0 mi WSW 3.5 mph - N/A   Clear
4:55 AM 44.6 °F 40.7 °F 35.6 °F 71% 29.86 in 10.0 mi WSW 6.9 mph - N/A   Clear
5:15 AM 44.6 °F 41.4 °F 35.6 °F 71% 29.87 in 10.0 mi WSW 5.8 mph - N/A   Clear
5:35 AM 46.4 °F 42.9 °F 37.4 °F 71% 29.88 in 10.0 mi SW 6.9 mph - N/A   Clear
5:55 AM 48.2 °F - 39.2 °F 71% 29.88 in 10.0 mi SW 5.8 mph - N/A   Clear
6:15 AM 50.0 °F - 41.0 °F 71% 29.88 in 10.0 mi SW 8.1 mph - N/A   Clear
6:35 AM 53.6 °F - 41.0 °F 62% 29.88 in 10.0 mi SW 3.5 mph - N/A   Clear
6:55 AM 53.6 °F - 41.0 °F 62% 29.87 in 10.0 mi South 3.5 mph - N/A   Clear
7:15 AM 53.6 °F - 41.0 °F 62% 29.88 in 10.0 mi Calm Calm - N/A   Clear
7:35 AM 55.4 °F - 42.8 °F 63% 29.88 in 10.0 mi SW 3.5 mph - N/A   Clear
7:55 AM 59.0 °F - 42.8 °F 55% 29.88 in 10.0 mi West 8.1 mph - N/A   Clear
8:15 AM 60.8 °F - 42.8 °F 52% 29.88 in 10.0 mi West 10.4 mph - N/A   Clear
8:35 AM 62.6 °F - 42.8 °F 48% 29.88 in 10.0 mi West 8.1 mph - N/A   Clear
8:55 AM 68.0 °F - 39.2 °F 35% 29.88 in 10.0 mi WNW 13.8 mph - N/A   Clear
9:15 AM 68.0 °F - 37.4 °F 33% 29.87 in 10.0 mi West 17.3 mph - N/A   Clear
9:35 AM 69.8 °F - 37.4 °F 31% 29.88 in 10.0 mi WNW 12.7 mph - N/A   Clear
9:55 AM 71.6 °F - 37.4 °F 29% 29.88 in 10.0 mi WNW 12.7 mph 18.4 mph N/A   Clear
10:15 AM 71.6 °F - 37.4 °F 29% 29.87 in 10.0 mi WNW 11.5 mph 17.3 mph N/A   Clear
10:35 AM 73.4 °F - 37.4 °F 27% 29.87 in 10.0 mi West 12.7 mph 18.4 mph N/A   Clear
10:55 AM 75.2 °F - 35.6 °F 24% 29.87 in 10.0 mi West 11.5 mph 21.9 mph N/A   Clear
11:15 AM 75.2 °F - 35.6 °F 24% 29.87 in 10.0 mi WNW 13.8 mph 18.4 mph N/A   Clear
11:35 AM 75.2 °F - 35.6 °F 24% 29.86 in 10.0 mi West 15.0 mph 18.4 mph N/A   Clear
11:55 AM 77.0 °F - 35.6 °F 22% 29.86 in 10.0 mi West 6.9 mph 20.7 mph N/A   Scattered Clouds
12:15 PM 77.0 °F - 33.8 °F 21% 29.86 in 10.0 mi West 13.8 mph 27.6 mph N/A   Scattered Clouds
12:35 PM 77.0 °F - 33.8 °F 21% 29.85 in 10.0 mi WSW 5.8 mph 23.0 mph N/A   Scattered Clouds
12:55 PM 77.0 °F - 32.0 °F 19% 29.84 in 10.0 mi WNW 16.1 mph 24.2 mph N/A   Scattered Clouds
1:15 PM 78.8 °F - 32.0 °F 18% 29.84 in 10.0 mi WNW 20.7 mph 26.5 mph N/A   Clear
1:35 PM 78.8 °F - 32.0 °F 18% 29.84 in 10.0 mi West 16.1 mph 23.0 mph N/A   Scattered Clouds
1:55 PM 78.8 °F - 32.0 °F 18% 29.83 in 10.0 mi WNW 11.5 mph 17.3 mph N/A   Scattered Clouds
2:15 PM 78.8 °F - 32.0 °F 18% 29.83 in 10.0 mi WNW 13.8 mph 20.7 mph N/A   Scattered Clouds
2:35 PM 80.6 °F - 32.0 °F 17% 29.82 in 10.0 mi West 18.4 mph 24.2 mph N/A   Scattered Clouds
2:55 PM 82.4 °F - 30.2 °F 15% 29.81 in 10.0 mi West 18.4 mph 23.0 mph N/A   Scattered Clouds
3:15 PM 80.6 °F - 30.2 °F 16% 29.81 in 10.0 mi West 16.1 mph 28.8 mph N/A   Scattered Clouds
3:35 PM 82.4 °F - 32.0 °F 16% 29.80 in 10.0 mi WNW 17.3 mph 21.9 mph N/A   Clear
3:55 PM 80.6 °F - 30.2 °F 16% 29.80 in 10.0 mi WNW 21.9 mph 29.9 mph N/A   Scattered Clouds
4:15 PM 78.8 °F - 32.0 °F 18% 29.79 in 10.0 mi NW 13.8 mph 23.0 mph N/A   Scattered Clouds
4:35 PM 80.6 °F - 32.0 °F 17% 29.79 in 10.0 mi West 20.7 mph 29.9 mph N/A   Scattered Clouds
4:55 PM 80.6 °F - 30.2 °F 16% 29.79 in 10.0 mi WNW 16.1 mph 19.6 mph N/A   Scattered Clouds
5:15 PM 80.6 °F - 26.6 °F 14% 29.78 in 10.0 mi WNW 21.9 mph 29.9 mph N/A   Mostly Cloudy
5:55 PM 80.6 °F - 26.6 °F 14% 29.78 in 10.0 mi West 17.3 mph - N/A   Scattered Clouds
6:15 PM 80.6 °F - 24.8 °F 13% 29.78 in 10.0 mi NW 21.9 mph 27.6 mph N/A   Scattered Clouds
6:35 PM 80.6 °F - 23.0 °F 12% 29.78 in 10.0 mi NW 16.1 mph 20.7 mph N/A   Clear
6:55 PM 80.6 °F - 23.0 °F 12% 29.78 in 10.0 mi NW 12.7 mph 23.0 mph N/A   Clear
7:15 PM 78.8 °F - 23.0 °F 13% 29.78 in 10.0 mi NW 12.7 mph 16.1 mph N/A   Clear
7:35 PM 78.8 °F - 23.0 °F 13% 29.78 in 10.0 mi NW 18.4 mph 21.9 mph N/A   Clear
7:55 PM 77.0 °F - 26.6 °F 16% 29.78 in 10.0 mi NW 12.7 mph 19.6 mph N/A   Clear
8:15 PM 75.2 °F - 24.8 °F 15% 29.79 in 10.0 mi NW 12.7 mph - N/A   Clear
8:35 PM 71.6 °F - 26.6 °F 19% 29.79 in 10.0 mi NW 9.2 mph - N/A   Clear
8:55 PM 69.8 °F - 28.4 °F 21% 29.80 in 10.0 mi NNW 9.2 mph - N/A   Clear
9:15 PM 69.8 °F - 28.4 °F 21% 29.81 in 10.0 mi NNW 9.2 mph - N/A   Clear
9:35 PM 66.2 °F - 30.2 °F 26% 29.81 in 10.0 mi NNW 6.9 mph - N/A   Clear
9:55 PM 62.6 °F - 30.2 °F 30% 29.82 in 10.0 mi NW 8.1 mph - N/A   Clear
10:15 PM 62.6 °F - 30.2 °F 30% 29.83 in 10.0 mi NNW 9.2 mph - N/A   Clear
10:35 PM 68.0 °F - 32.0 °F 26% 29.84 in 10.0 mi NNE 10.4 mph - N/A   Clear
10:55 PM 64.4 °F - 32.0 °F 30% 29.84 in 10.0 mi NNE 9.2 mph - N/A   Clear
11:15 PM 62.6 °F - 32.0 °F 32% 29.84 in 10.0 mi NNE 8.1 mph - N/A   Clear
11:35 PM 60.8 °F - 32.0 °F 34% 29.85 in 10.0 mi NNE 6.9 mph - N/A   Clear
11:55 PM 60.8 °F - 33.8 °F 36% 29.85 in 10.0 mi NNE 6.9 mph - N/A   Clear